Accueil
METAR-TAF:

METAR-TAF

Aéroports :

Lismore, Australie

latitude: 28-49-41S, longitude: 153-15-36E, altitude: 11 m

Observation

Le bulletin a été fait il y a 1 heure et 4 minutes, à 21:00 UTC
Vent calme
Température 26°C
Humidité 70%
Pression 1017 hPa
Visibilité 10 km ou plus
Nuages épars à une hauteur de 4600 ft

METAR: YLIS 202100Z AUTO 00000KT 9999 // SCT046 26/20 Q1017

Heure: 09:04 (22:04 UTC)


TAF: absent

Observations et prévisions météorologiques de plus de 4000 aéroports (messages METAR et TAF).

Les stations disponibles sont représentées par des disques jaunes et rouges sur la carte.

Passer la souris dessus pour voir le nom de la station.

Cliquer dessus pour voir les observations et prévisions météorologiques.

Pour changer de carte: cliquez sur les boutons verts avec une croix noire pour zoomer, sur le bouton vert avec un tiret pour effectuer un zoom arrière, ou sur les flèches vertes pour les cartes adjacentes.


METAR-TAF: